SCP
1 1 1 1 1 1 1 1 1 1 1 1 1 1 1 0 0 0 0 0 0 0 0 0 0 0 0 0 0 0 0 0 0 0 0 0 0 0 0 0 0 0 0
1 1 1 1 1 1 1 1 1 1 1 1 1 1 1 0 0 0 0 0 0 0 0 0 0 0 0 0 0 0 0 0 0 0 0 0 0 0 0 0 0 0 0
1 1 1 1 1 1 1 1 1 1 1 1 1 1 1 1 0 0 0 0 0 0 0 0 0 0 0 0 0 0 0 0 0 0 0 0 0 0 0 0 0 0 0
1 1 1 1 1 1 1 1 1 1 1 1 1 1 1 1 0 0 0 0 0 0 0 0 0 0 0 0 0 0 0 0 0 0 0 0 0 0 0 0 0 0 0
1 1 1 1 1 1 1 1 1 1 1 1 1 1 1 1 0 0 0 0 0 0 0 0 0 0 0 0 0 0 0 0 0 0 0 0 0 0 0 0 0 0 0
1 1 1 1 1 1 1 1 1 1 1 1 1 1 1 1 1 0 0 0 0 0 0 0 0 0 0 0 0 0 0 0 0 0 0 0 0 0 0 0 0 0 0
1 1 1 1 1 1 1 1 1 1 1 1 1 1 1 1 1 1 0 0 0 0 0 0 0 0 0 0 0 0 0 0 0 0 0 0 0 0 0 0 0 0 0
1 1 1 1 1 1 1 1 1 1 1 1 1 1 1 1 1 1 1 0 0 0 0 0 0 0 0 0 0 0 0 0 0 0 0 0 0 0 0 0 0 0 0
1 1 1 1 1 1 1 1 1 1 1 1 1 1 1 1 1 1 1 1 0 0 0 0 0 0 0 0 0 0 0 0 0 0 0 0 0 0 0 0 0 0 0
1 1 1 1 1 1 1 1 1 1 1 1 1 1 1 1 1 1 1 1 1 1 0 0 0 0 0 0 0 0 0 0 0 0 0 0 0 0 0 0 0 0 0
1 1 1 1 1 1 1 1 1 1 1 1 1 1 1 1 1 1 1 1 1 1 1 0 0 0 0 0 0 0 0 0 0 0 0 0 0 0 0 0 0 0 0
1 1 1 1 1 1 1 1 1 1 1 1 1 1 1 1 1 1 1 1 1 1 1 1 0 0 0 0 0 0 0 0 0 0 0 0 0 0 0 0 0 0 0
1 1 1 0 0 1 1 1 1 1 1 1 1 1 1 1 1 1 1 1 1 0 0 0 0 0 0 0 0 0 0 0 0 0 0 0 0 0 0 0 0 0 0
1 1 0 0 0 1 1 1 1 1 1 1 1 1 1 1 1 0 0 0 0 0 0 0 0 0 0 0 0 0 0 0 0 0 0 0 0 0 0 0 0 0 0
0 0 0 0 0 0 1 1 1 1 1 1 1 1 1 0 0 0 0 0 0 0 0 0 0 0 0 0 0 0 0 0 0 0 0 0 0 0 0 0 0 0 0
0 0 0 0 0 0 0 0 0 0 1 1 1 0 0 0 0 0 0 0 0 0 0 0 0 0 0 0 0 0 0 0 0 0 0 0 0 0 0 0 0 0 0
0 0 0 0 0 0 0 0 0 0 0 0 0 0 0 0 0 0 0 0 0 0 0 0 0 0 0 0 0 0 0 0 0 0 0 0 0 0 0 0 0 0 0
0 0 0 0 0 0 0 0 0 0 0 0 0 0 0 0 0 0 0 0 0 0 0 0 0 0 0 0 0 0 0 0 0 0 0 0 0 0 0 0 0 0 0
0 0 0 0 0 0 0 0 0 0 0 0 0 0 0 0 0 0 0 0 0 0 0 0 0 0 0 0 0 0 0 0 0 0 0 0 0 0 0 0 0 0 0
0 0 0 0 0 0 0 0 0 0 0 0 0 0 0 0 0 0 0 0 0 0 0 0 0 0 0 0 0 0 0 0 0 0 0 0 0 0 0 0 0 0 0
0 0 0 0 0 0 0 0 0 0 0 0 0 0 0 0 0 0 0 0 0 0 0 0 0 0 0 0 0 0 0 0 0 0 0 0 0 0 0 0 0 0 0
0 0 0 0 0 0 0 0 0 0 0 0 0 0 0 0 0 0 0 0 0 0 0 0 0 0 0 0 0 0 0 0 0 0 0 0 0 0 0 0 0 0 0
0 0 0 0 0 0 0 0 0 0 0 0 0 0 0 0 0 0 0 0 0 0 0 0 0 0 0 0 0 0 0 0 0 0 0 0 0 0 0 0 0 0 0
0 0 0 0 0 0 0 0 0 0 0 0 0 0 0 0 0 0 0 0 0 0 0 0 0 0 0 0 0 0 0 0 0 0 0 0 0 0 0 0 0 0 0
0 0 0 0 0 0 0 0 0 0 0 0 0 0 0 0 0 0 0 0 0 0 0 0 0 0 0 0 0 0 0 0 0 0 0 0 0 0 0 0 0 0 0
0 0 0 0 0 0 0 0 0 0 0 0 0 0 0 0 0 0 0 0 0 0 0 0 0 0 0 0 0 0 0 0 0 0 0 0 0 0 0 0 0 0 0
Wind_Speed
7 6 7 7 7 7 7 6 6 4 4 4 3 3 3 2 2 2 3 3 3 3 2 2 2 2 2 2 2 2 2 1 1 1 1 1 1 2 2 2 2 3 4
7 7 6 6 7 7 7 6 6 5 4 4 3 3 3 2 2 1 2 3 3 3 3 2 2 2 2 1 1 2 2 1 2 2 1 1 2 2 2 2 3 3 2
10 9 8 7 6 6 7 7 6 5 4 4 3 3 3 2 1 1 1 2 2 3 3 3 2 2 2 2 2 3 3 2 1 2 3 3 2 2 2 1 2 2 2
9 8 8 8 7 6 5 5 5 5 4 4 5 6 4 4 3 2 2 1 2 3 3 3 3 2 2 2 2 3 2 3 2 1 1 2 3 2 1 2 1 2 3
9 9 9 9 7 6 6 5 4 4 4 5 5 5 4 3 2 2 2 1 1 2 2 2 2 2 2 2 2 3 2 2 3 2 1 1 1 1 2 2 2 2 2
7 7 6 7 6 5 5 5 5 4 4 5 4 5 5 4 4 3 2 1 1 1 1 2 2 2 2 2 2 3 3 3 3 2 2 2 2 2 2 2 2 2 3
6 7 7 6 6 5 5 5 5 4 4 5 4 4 5 5 5 3 3 2 2 1 2 2 2 2 2 2 2 2 2 3 3 3 2 2 2 2 3 2 2 1 2
5 6 7 7 6 6 5 5 5 4 4 4 4 3 4 3 3 3 3 3 2 3 2 2 2 2 2 2 2 2 2 2 3 3 3 2 2 2 3 3 3 1 1
5 6 6 6 6 7 6 6 5 4 4 4 4 4 3 3 3 3 2 2 2 2 2 2 2 2 1 2 2 2 2 2 3 3 3 2 2 2 2 2 3 3 2
5 6 6 6 5 5 6 5 6 5 4 4 4 3 3 3 3 3 2 2 1 1 2 2 2 1 1 1 2 1 1 2 2 2 2 2 1 1 1 2 2 2 3
5 5 4 4 4 4 4 4 4 4 4 4 4 3 3 3 3 3 2 2 2 1 2 3 2 2 2 1 2 2 1 2 1 2 2 2 2 1 1 2 1 1 2
5 5 4 4 3 3 3 3 4 4 4 4 4 4 4 3 3 3 2 2 2 2 2 2 2 3 2 2 2 2 2 2 2 2 2 2 2 2 2 2 2 2 2
3 3 3 3 3 3 3 3 4 4 4 4 4 4 3 4 3 3 2 2 2 2 1 2 2 2 2 3 3 3 2 2 2 3 3 3 2 2 1 2 2 1 1
4 3 3 2 3 3 3 3 3 3 4 4 4 4 4 4 4 3 2 2 1 1 2 2 2 2 2 2 2 2 2 2 2 2 3 3 3 4 3 2 2 2 1
2 2 2 2 3 3 3 3 3 3 4 4 4 4 4 4 3 3 3 2 1 2 2 2 2 2 2 2 3 3 3 2 1 1 2 2 3 5 4 3 3 3 2
1 1 1 2 3 3 4 3 3 3 3 5 5 4 3 3 4 3 3 2 2 1 1 2 2 2 2 3 4 3 3 2 2 2 2 2 2 3 4 4 5 6 4
1 0 1 1 2 3 3 4 3 3 3 4 4 4 4 4 4 4 3 3 3 2 2 1 2 2 2 3 3 3 3 3 3 3 2 2 2 2 2 3 3 4 5
1 1 1 1 1 1 1 2 3 3 3 3 3 3 4 4 3 3 3 2 2 2 2 1 1 1 1 2 3 3 2 2 2 3 3 3 3 2 2 2 1 2 3
2 2 2 1 1 0 1 2 2 2 2 3 3 3 4 4 3 3 3 2 2 2 1 1 2 2 1 2 2 2 1 1 2 2 3 3 3 3 3 3 2 2 3
2 1 1 2 1 1 2 3 3 2 1 2 2 2 3 3 3 3 2 2 2 2 1 1 2 2 2 3 3 3 1 1 1 2 2 3 3 3 4 3 3 3 3
2 2 2 2 0 0 2 3 2 1 1 1 2 2 2 2 2 2 1 1 1 1 1 1 1 1 2 3 3 4 2 2 2 1 2 2 4 3 4 4 4 5 4
2 2 2 1 1 1 2 2 1 1 1 2 2 2 1 1 1 1 0 1 2 2 1 1 1 1 2 2 3 4 5 3 2 2 2 3 4 4 4 3 4 4 2
1 1 1 2 2 1 2 2 1 1 2 2 2 1 1 1 1 1 1 0 1 2 1 1 1 2 2 2 3 4 4 4 3 2 3 3 3 3 3 4 4 3 2
1 1 2 2 1 1 1 1 1 1 3 3 2 2 2 1 1 1 1 1 1 1 2 2 2 2 2 2 2 2 2 2 2 2 3 3 2 1 2 2 2 2 2
1 1 2 2 1 1 1 1 1 2 3 2 2 2 2 1 1 1 0 1 2 3 3 3 3 3 3 4 4 2 2 2 2 1 0 1 1 1 1 1 2 2 1
1 1 1 1 1 1 1 1 2 2 3 2 1 1 1 1 1 1 2 3 2 2 4 5 4 3 4 4 3 3 2 2 3 3 1 1 1 2 2 2 2 2 2
Wind_Direction
153 142 142 143 139 133 132 137 138 150 148 145 147 147 155 150 144 159 151 146 143 140 138 149 146 143 146 169 163 145 151 172 133 98 12 339 256 214 208 202 192 201 203
140 141 139 140 141 142 141 146 150 152 160 163 164 158 149 152 149 145 139 153 154 161 157 156 165 168 156 150 158 145 150 185 153 136 119 356 342 308 242 209 201 202 188
159 156 151 151 149 151 153 150 154 152 158 155 133 119 97 88 98 132 179 195 175 166 158 163 163 171 169 184 191 167 163 176 190 159 153 156 212 286 310 247 210 198 191
156 155 157 157 157 161 157 150 154 152 151 148 150 153 156 166 191 186 186 195 184 174 166 163 164 166 170 188 201 180 172 161 184 212 192 169 161 162 273 310 275 222 210
158 161 166 163 162 160 155 152 146 145 145 149 153 155 158 172 165 160 151 169 183 177 173 167 168 171 177 190 193 177 174 174 178 186 183 163 133 151 157 244 286 286 248
161 159 157 152 153 157 152 147 144 152 151 149 149 153 154 150 142 151 162 181 196 201 190 174 171 184 184 189 187 183 180 184 179 181 173 166 168 184 164 198 235 258 266
150 152 150 149 153 151 150 148 148 157 161 156 160 164 159 151 155 165 173 176 184 202 214 192 188 194 200 195 184 182 186 181 177 185 189 185 193 176 163 165 195 237 278
140 151 160 157 154 154 154 155 163 168 168 166 168 165 157 157 164 163 172 181 195 204 198 190 195 198 191 188 180 182 193 183 191 200 191 187 201 179 172 169 162 183 291
145 149 147 148 157 161 165 168 168 169 170 172 165 163 164 161 162 164 166 180 198 192 172 178 194 204 194 189 169 188 204 192 197 200 194 193 203 188 186 175 166 162 199
148 143 141 146 156 167 167 165 167 174 175 167 172 165 170 172 167 161 172 183 191 184 171 182 197 210 203 194 181 186 200 191 204 192 179 191 204 197 185 177 174 166 173
145 139 141 150 144 145 157 161 167 167 172 174 171 166 172 171 160 164 184 193 190 185 197 198 192 193 201 204 190 193 181 190 208 195 179 201 197 195 197 177 171 171 163
156 144 141 143 141 140 155 173 177 178 186 181 166 174 178 174 173 179 186 181 186 195 200 195 194 195 199 197 196 204 199 191 197 201 184 211 201 201 201 177 184 196 189
140 132 133 151 161 160 166 186 197 192 182 169 167 173 179 178 186 189 184 175 179 190 192 184 194 200 200 200 203 197 191 191 203 197 195 211 187 207 209 191 191 205 208
131 132 141 165 174 171 179 189 208 188 169 169 172 176 182 181 191 193 179 178 179 204 213 200 202 199 194 192 189 183 175 187 198 197 201 207 195 204 201 196 194 185 176
109 138 170 183 174 172 189 193 201 196 175 169 176 185 184 170 169 185 179 171 188 234 220 202 203 199 196 195 189 187 182 187 203 219 224 226 215 207 200 198 194 182 180
103 153 217 207 184 183 190 191 197 198 178 172 184 186 174 164 171 180 175 172 195 247 244 213 195 199 218 197 183 179 183 190 200 223 245 246 231 219 217 216 204 192 192
131 197 250 247 222 205 192 187 187 179 166 173 183 186 178 177 186 185 172 179 182 192 231 223 184 203 236 199 185 185 188 201 211 220 233 246 242 226 227 232 227 225 225
178 218 259 282 279 240 181 167 155 157 164 176 189 192 182 182 188 183 177 188 182 184 196 216 194 182 234 214 201 196 190 208 221 224 222 223 238 224 208 209 230 254 255
171 192 188 193 282 238 162 144 150 151 161 180 194 199 181 175 175 181 190 188 174 185 196 197 177 177 246 230 204 174 161 213 253 244 229 216 214 226 203 186 215 263 280
115 118 108 87 86 233 158 139 137 130 183 207 197 182 167 165 173 193 197 191 177 189 191 205 198 195 217 228 212 180 168 211 263 284 267 233 218 222 196 190 198 234 261
100 93 92 90 61 62 118 122 120 164 233 190 148 145 156 161 166 177 195 178 171 165 176 204 251 224 222 225 216 196 182 205 227 253 267 264 246 235 220 211 207 227 238
87 90 92 71 31 63 94 93 107 240 129 116 121 142 158 167 137 135 185 187 167 172 194 194 289 282 261 243 230 215 209 202 200 229 247 262 257 240 243 234 240 245 242
76 80 100 77 44 45 84 100 303 21 95 101 104 112 103 68 114 130 142 131 157 165 194 196 226 271 284 280 257 228 218 211 207 232 249 267 278 267 251 250 249 234 205
59 90 94 83 41 28 59 94 53 89 106 104 95 94 90 68 61 101 139 168 200 195 201 205 228 256 268 273 275 247 217 218 234 259 276 279 283 286 270 275 254 223 211
45 90 104 113 103 74 62 38 59 84 92 94 86 76 81 86 62 38 249 229 242 213 202 215 214 213 244 251 232 207 201 201 213 205 343 15 6 331 313 294 283 270 240
82 65 63 80 82 84 69 33 54 90 96 85 72 65 51 20 47 47 3 346 291 270 227 217 208 223 232 251 243 224 211 192 159 136 160 234 243 246 251 258 271 268 251